STARLINK-36886

operational
NORAD ID: 70112 Constellation: starlink
LEOCIRCULAR

About STARLINK-36886

Description loading...

Live Position

Loading 3D Globe...

Upcoming Passes

Altitude History

Altitude vs Time

uPlot chart will show altitude changes over time

Two-Line Element Set

1 70112C 26050J 26073.73243056 .00571180 00000+0 75003-3 0 734
2 70112 53.1639 257.6158 0011323 268.2601 224.7073 16.05441045 15
Epoch: Mar 14, 2026 • Age: 46 hours